Temp
61 61 60 59 59 59 57 57 56 55 53 51 50 49 47 46 46 47 49 51 51 49 49 49 47 48 49 50 52 56 57 57 56 57 58 58 56 56 57 57 57 56 56
59 58 57 57 57 56 55 54 53 51 51 49 48 47 46 45 46 47 47 47 47 46 46 44 44 46 45 46 49 49 50 51 53 55 57 57 56 57 57 56 56 57 56
58 56 55 54 54 53 52 51 51 49 48 47 45 44 43 43 45 46 45 45 45 45 45 42 42 44 43 44 45 44 45 49 50 50 50 55 55 55 55 55 55 55 56
57 55 52 52 51 50 50 49 48 48 46 44 44 44 43 42 42 44 44 43 43 44 44 42 41 40 40 41 44 42 43 43 44 44 46 46 48 50 51 52 53 53 54
55 53 51 50 49 48 48 47 46 46 45 44 43 42 42 41 42 42 44 44 42 42 39 41 40 41 40 39 40 40 40 40 41 41 42 42 42 42 42 45 45 48 53
52 51 51 49 49 46 46 46 45 45 43 43 41 40 38 40 38 38 40 43 43 43 38 37 38 39 38 38 38 38 38 37 37 38 40 39 40 42 43 43 43 43 42
50 50 49 48 46 46 46 44 44 41 42 41 41 42 39 39 38 37 37 39 38 39 39 39 37 39 38 38 39 39 39 37 32 37 37 38 38 40 41 41 41 41 39
48 47 47 46 45 44 43 43 42 42 41 41 41 40 40 40 38 37 37 38 38 36 37 38 37 38 38 37 37 38 39 39 37 37 37 38 39 40 41 41 41 41 40
44 44 44 43 42 41 40 40 41 39 39 38 39 39 39 39 37 37 36 36 35 36 38 37 36 34 37 37 36 34 34 35 38 39 38 38 38 38 39 40 37 36 35
43 42 43 42 41 40 40 39 38 38 39 38 38 36 37 34 37 36 36 35 34 35 37 38 37 35 35 35 35 34 33 32 33 34 35 37 38 39 37 39 39 35 33
43 42 41 41 40 40 39 39 38 38 37 36 36 34 33 33 35 37 36 35 34 34 33 33 35 35 35 36 36 35 34 34 33 33 34 35 35 36 37 38 38 38 34
40 39 38 38 39 39 37 38 35 32 31 30 29 29 30 31 34 34 34 34 34 31 32 33 34 36 35 35 34 35 34 33 33 33 33 33 33 34 35 35 36 37 37
36 34 35 36 37 37 34 31 30 30 29 29 29 29 29 30 29 33 34 34 33 31 31 33 34 35 34 33 34 33 32 33 32 32 32 33 33 34 35 35 36 37 36
33 34 35 34 33 32 31 31 29 29 28 26 25 23 23 25 26 29 29 28 30 32 30 30 32 32 33 33 33 33 33 33 32 32 32 33 34 33 33 34 33 33 33
33 33 32 31 30 29 29 28 28 29 28 24 22 23 22 22 25 29 28 26 26 28 26 26 26 27 29 31 32 33 33 33 32 33 33 32 33 33 33 33 33 32 32
30 29 28 27 27 26 26 25 30 30 30 30 29 25 23 28 29 29 29 28 28 27 22 22 22 23 23 24 28 30 32 32 32 33 32 32 32 32 32 32 32 32 31
28 28 26 26 25 24 23 22 20 23 28 28 28 27 26 27 27 27 27 26 25 24 20 20 20 21 22 24 25 27 29 33 33 32 32 32 32 32 31 31 32 31 31
26 25 24 23 23 21 20 21 21 19 17 19 25 24 24 25 25 25 24 21 16 18 18 18 20 21 22 22 23 26 29 32 32 32 31 31 31 31 31 31 31 31 31
26 24 23 23 23 22 22 21 21 20 19 19 20 19 19 22 22 21 21 15 13 14 16 18 19 20 21 21 21 23 25 32 32 32 32 32 32 31 31 31 31 31 31
24 23 22 23 22 21 20 19 19 18 17 17 17 16 16 16 13 12 13 12 12 13 15 16 17 19 19 20 19 20 21 26 29 31 31 32 31 31 31 31 31 31 30
22 22 20 21 20 19 18 17 17 16 14 14 15 16 14 13 12 12 12 11 10 12 13 15 15 17 17 18 18 18 19 21 24 25 27 30 31 30 31 31 31 31 31
22 22 21 19 18 16 17 17 15 14 13 12 12 13 11 10 10 10 10 10 10 13 14 15 14 16 16 16 16 17 17 18 20 21 23 26 30 31 31 31 31 31 31
20 19 18 17 16 13 13 14 12 11 10 9 9 9 8 7 6 7 6 6 8 10 12 13 13 14 15 15 16 17 16 17 18 19 20 24 28 31 31 31 31 31 31
19 17 15 13 12 11 9 6 8 6 8 6 4 5 4 4 3 3 3 4 5 7 9 10 12 13 13 13 15 16 17 17 18 19 21 22 28 30 31 31 31 31 31
16 13 12 10 8 4 -0 5 3 2 3 3 1 1 3 2 3 1 1 2 3 3 6 7 9 11 11 11 12 14 15 15 15 17 20 22 28 30 30 30 31 31 31
14 12 10 8 6 3 1 -5 -3 -1 -3 -1 -2 -3 -2 -1 -0 -2 -0 -0 -0 1 3 5 7 8 10 11 12 14 13 13 14 16 19 23 29 31 30 31 31 30 31
MSLP
1004.52 1004.58 1004.98 1005.77 1006.41 1006.57 1007.38 1008.33 1008.88 1009.33 1010.12 1010.24 1010.50 1010.76 1010.75 1010.70 1010.83 1010.83 1010.69 1010.50 1010.30 1010.41 1010.33 1010.24 1009.86 1009.47 1008.84 1008.15 1007.50 1006.65 1005.80 1005.31 1004.58 1003.79 1003.68 1003.44 1003.77 1003.71 1003.41 1003.37 1003.56 1003.53 1003.46
1006.26 1006.45 1006.62 1006.87 1007.21 1007.79 1008.28 1009.01 1009.48 1009.85 1010.41 1010.83 1011.35 1011.70 1011.75 1011.81 1011.63 1011.47 1011.42 1011.33 1011.35 1011.23 1011.14 1010.98 1010.63 1010.15 1009.76 1009.14 1008.47 1007.93 1007.12 1006.33 1005.69 1004.38 1003.73 1003.54 1003.35 1003.08 1002.90 1002.92 1002.88 1002.75 1002.77
1007.02 1008.42 1008.14 1008.26 1008.61 1009.00 1009.44 1009.68 1009.82 1010.32 1011.45 1011.94 1012.24 1012.46 1012.62 1012.44 1012.31 1012.24 1012.19 1012.12 1012.12 1012.08 1011.63 1011.60 1011.45 1010.84 1010.37 1009.99 1009.39 1008.79 1008.04 1007.21 1006.46 1005.95 1005.06 1004.41 1003.67 1003.19 1002.88 1002.63 1002.34 1002.29 1002.26
1008.11 1009.34 1009.11 1009.59 1009.85 1010.29 1010.07 1010.50 1010.96 1011.52 1012.29 1012.64 1012.78 1012.90 1012.94 1013.10 1013.10 1013.09 1012.98 1012.83 1012.78 1012.54 1012.26 1012.00 1011.86 1011.55 1011.14 1010.77 1010.20 1009.69 1008.76 1008.06 1007.30 1006.60 1006.06 1005.69 1005.04 1004.45 1003.85 1003.20 1002.27 1002.23 1001.87
1009.34 1010.02 1009.07 1010.39 1011.08 1010.42 1011.63 1012.20 1012.13 1012.54 1012.88 1012.91 1013.11 1013.23 1013.48 1013.68 1013.89 1013.86 1013.38 1013.24 1013.19 1013.06 1012.86 1012.50 1012.15 1011.86 1011.49 1011.31 1010.95 1010.31 1009.50 1009.01 1008.26 1007.59 1006.93 1006.48 1006.01 1005.52 1005.16 1004.63 1003.98 1003.06 1002.24
1010.60 1010.00 1010.39 1010.68 1012.18 1011.47 1012.03 1012.78 1013.00 1013.49 1013.58 1013.21 1013.34 1013.77 1014.34 1014.81 1014.86 1014.39 1013.93 1013.58 1013.29 1013.02 1012.97 1012.74 1012.35 1012.12 1011.71 1011.47 1011.24 1010.76 1010.31 1009.71 1009.12 1008.49 1007.87 1007.40 1006.94 1006.55 1006.12 1005.50 1004.75 1003.78 1002.93
1009.87 1011.11 1012.10 1012.80 1012.28 1013.89 1013.72 1013.33 1014.02 1014.24 1014.04 1013.69 1013.76 1014.19 1014.92 1015.36 1015.28 1014.97 1014.45 1014.03 1013.96 1013.53 1013.18 1012.73 1012.58 1012.11 1011.79 1011.53 1011.16 1010.70 1010.18 1009.96 1009.68 1009.27 1008.57 1008.10 1007.67 1007.20 1006.66 1005.89 1005.35 1004.85 1004.26
1010.55 1011.42 1012.66 1013.25 1014.56 1014.88 1014.46 1014.55 1014.77 1014.71 1014.70 1014.67 1014.60 1014.86 1015.32 1015.56 1015.63 1015.40 1014.86 1014.55 1014.29 1013.97 1013.59 1013.15 1012.79 1012.28 1011.85 1011.59 1011.13 1010.49 1010.09 1009.79 1009.63 1009.35 1008.89 1008.18 1007.70 1007.31 1006.78 1006.20 1005.55 1004.94 1004.38
1011.22 1012.01 1012.53 1014.03 1014.99 1015.62 1015.95 1015.64 1015.40 1015.41 1015.56 1015.66 1015.79 1015.60 1015.76 1015.86 1015.88 1015.73 1015.30 1015.00 1014.65 1014.16 1013.80 1013.32 1012.77 1012.29 1011.83 1011.46 1010.94 1010.42 1009.96 1009.62 1009.38 1009.12 1008.71 1008.18 1007.59 1006.98 1006.53 1006.05 1005.65 1005.20 1004.84
1011.79 1012.83 1013.87 1014.98 1015.79 1016.79 1016.83 1015.97 1016.50 1016.66 1016.43 1016.54 1016.45 1016.41 1016.34 1016.38 1016.24 1016.08 1015.63 1015.28 1014.81 1014.36 1013.78 1013.22 1012.71 1012.26 1011.82 1011.39 1010.92 1010.36 1009.81 1009.40 1009.10 1008.69 1008.37 1007.78 1007.38 1006.93 1006.55 1006.20 1005.77 1005.37 1005.19
1012.78 1013.86 1015.17 1016.20 1016.68 1017.09 1016.87 1016.84 1016.86 1017.37 1017.08 1017.21 1017.16 1016.86 1016.46 1016.42 1016.82 1016.36 1015.91 1015.51 1014.97 1014.49 1013.90 1013.18 1012.66 1012.16 1011.69 1011.16 1010.68 1010.23 1009.71 1009.27 1008.87 1008.43 1008.04 1007.65 1007.20 1006.83 1006.42 1006.14 1005.75 1005.40 1005.04
1014.31 1014.48 1015.73 1016.45 1017.03 1017.22 1017.16 1017.70 1017.46 1017.94 1017.91 1018.04 1017.73 1017.48 1017.15 1017.04 1017.02 1016.95 1016.43 1015.87 1015.27 1014.76 1013.93 1013.00 1012.43 1011.85 1011.42 1010.93 1010.41 1009.82 1009.39 1009.02 1008.69 1008.30 1007.82 1007.33 1007.00 1006.55 1006.12 1005.99 1005.64 1005.26 1004.99
1016.24 1015.03 1016.78 1017.42 1017.84 1017.96 1018.62 1018.44 1018.55 1018.95 1018.88 1018.78 1018.37 1018.29 1018.22 1018.29 1017.96 1017.36 1016.64 1015.93 1015.28 1014.73 1014.04 1013.15 1012.27 1011.55 1011.03 1010.46 1009.91 1009.50 1009.10 1008.65 1008.29 1007.86 1007.33 1006.93 1006.56 1006.22 1006.08 1005.69 1005.38 1005.21 1004.94
1016.66 1017.12 1017.53 1018.41 1019.15 1019.31 1019.25 1019.42 1019.74 1019.80 1019.75 1019.54 1019.34 1019.07 1019.37 1019.39 1018.68 1017.78 1017.02 1016.27 1015.54 1014.69 1014.16 1013.17 1012.27 1011.45 1010.78 1010.20 1009.53 1009.00 1008.51 1008.12 1007.79 1007.33 1006.83 1006.44 1006.09 1005.89 1005.73 1005.45 1005.30 1005.18 1004.99
1017.50 1018.13 1019.13 1019.45 1020.16 1020.64 1020.68 1020.82 1020.48 1020.46 1020.60 1020.16 1020.28 1020.59 1020.51 1019.86 1019.06 1018.23 1017.37 1016.56 1015.90 1015.25 1014.20 1013.39 1012.67 1011.90 1011.06 1010.25 1009.53 1008.80 1008.03 1007.60 1007.22 1006.77 1006.40 1006.07 1005.74 1005.53 1005.31 1005.15 1005.03 1004.97 1004.93
1018.90 1019.42 1019.87 1020.57 1021.24 1021.50 1021.22 1021.29 1021.29 1020.97 1020.93 1021.25 1021.52 1021.44 1020.83 1020.14 1019.27 1018.48 1017.73 1016.96 1016.27 1015.56 1014.77 1014.25 1013.65 1012.94 1012.05 1011.06 1009.92 1008.88 1007.90 1007.11 1006.65 1006.27 1005.95 1005.68 1005.42 1005.21 1004.96 1004.82 1004.79 1004.72 1004.64
1019.89 1020.37 1021.21 1021.56 1021.85 1021.91 1021.84 1021.99 1022.23 1022.36 1022.16 1021.81 1021.89 1021.65 1021.08 1020.47 1019.60 1019.01 1018.32 1017.65 1017.03 1016.33 1015.81 1015.15 1014.41 1013.50 1012.44 1011.32 1010.24 1009.04 1007.87 1006.77 1006.22 1005.82 1005.52 1005.24 1005.03 1004.81 1004.66 1004.46 1004.35 1004.31 1004.27
1021.19 1022.12 1022.46 1022.31 1022.76 1022.92 1023.00 1023.12 1023.12 1022.91 1022.73 1022.51 1022.19 1021.84 1021.44 1020.77 1020.16 1019.66 1018.97 1018.24 1017.45 1016.78 1016.62 1015.92 1014.91 1013.99 1012.88 1011.76 1010.52 1008.99 1007.52 1006.43 1005.80 1005.45 1005.14 1004.87 1004.58 1004.38 1004.18 1003.99 1003.89 1003.90 1003.93
1022.54 1023.19 1023.11 1023.44 1023.92 1023.89 1023.79 1023.74 1023.80 1023.81 1023.58 1023.35 1022.63 1022.11 1021.90 1021.42 1020.95 1020.47 1019.87 1019.57 1019.11 1018.27 1017.45 1016.43 1015.61 1014.60 1013.39 1012.36 1011.13 1009.70 1008.13 1006.09 1005.50 1005.13 1004.79 1004.49 1004.17 1003.97 1003.73 1003.54 1003.48 1003.53 1003.58
1023.81 1024.23 1024.36 1024.66 1024.59 1024.49 1024.55 1024.63 1024.74 1024.67 1024.52 1024.32 1023.99 1023.92 1023.33 1022.32 1021.55 1021.13 1020.80 1020.48 1019.89 1019.06 1018.18 1017.19 1016.11 1015.13 1014.09 1012.90 1011.76 1010.46 1008.97 1007.44 1006.33 1005.47 1004.91 1004.38 1003.96 1003.64 1003.39 1003.22 1003.16 1003.19 1003.35
1025.33 1025.60 1025.31 1025.03 1025.25 1025.38 1025.52 1025.56 1025.51 1025.59 1025.66 1025.46 1025.16 1024.88 1024.58 1023.81 1023.30 1022.67 1021.97 1021.32 1020.77 1019.71 1018.73 1017.74 1016.65 1015.55 1014.58 1013.47 1012.31 1011.11 1009.95 1008.73 1007.59 1006.63 1005.74 1004.76 1004.01 1003.47 1003.16 1002.95 1002.90 1002.98 1003.20
1025.99 1025.85 1025.86 1025.95 1026.36 1026.39 1026.41 1026.62 1026.73 1026.75 1026.71 1026.39 1025.94 1025.45 1025.07 1024.63 1024.13 1023.53 1022.88 1022.21 1021.43 1020.43 1019.43 1018.27 1017.19 1016.06 1015.11 1014.12 1012.94 1011.70 1010.61 1009.52 1008.45 1007.51 1006.48 1005.38 1004.30 1003.50 1003.03 1002.80 1002.74 1002.87 1003.09
1026.67 1026.62 1027.01 1027.32 1027.23 1027.23 1027.80 1028.08 1027.96 1027.83 1027.64 1027.34 1026.90 1026.31 1025.80 1025.38 1024.90 1024.32 1023.69 1022.91 1021.94 1020.83 1019.79 1018.69 1017.61 1016.40 1015.47 1014.59 1013.54 1012.43 1011.33 1010.18 1009.27 1008.30 1007.13 1005.84 1004.66 1003.71 1003.14 1002.87 1002.84 1002.96 1003.12
1027.45 1027.74 1027.99 1028.18 1028.37 1028.73 1029.29 1029.49 1029.15 1028.83 1028.55 1028.26 1027.89 1027.40 1026.87 1026.33 1025.75 1025.13 1024.44 1023.56 1022.54 1021.34 1020.23 1019.23 1018.00 1016.87 1015.82 1014.78 1013.64 1012.62 1011.57 1010.58 1009.53 1008.27 1007.23 1006.08 1004.79 1003.85 1003.31 1003.02 1002.98 1003.00 1003.18
1028.66 1028.86 1029.13 1029.60 1029.78 1030.54 1030.65 1030.41 1030.23 1029.89 1029.51 1029.19 1028.90 1028.49 1027.94 1027.32 1026.56 1025.80 1024.97 1024.10 1023.10 1021.96 1020.59 1019.54 1018.30 1017.13 1015.95 1014.83 1013.75 1012.60 1011.31 1010.13 1009.14 1008.16 1006.94 1005.88 1004.66 1003.80 1003.38 1003.17 1003.16 1003.18 1003.28
1029.56 1030.27 1030.62 1031.04 1031.37 1031.35 1031.45 1031.61 1031.22 1030.81 1030.64 1030.30 1029.99 1029.48 1028.90 1028.20 1027.43 1026.56 1025.55 1024.62 1023.64 1022.41 1021.18 1019.84 1018.53 1017.39 1016.06 1014.79 1013.67 1012.41 1011.16 1009.91 1008.79 1007.69 1006.75 1005.61 1004.52 1003.79 1003.44 1003.34 1003.38 1003.41 1003.55
Wind_Speed
11 13 14 12 11 12 12 11 11 12 10 10 10 11 10 11 9 8 9 11 10 10 10 10 10 11 8 8 8 9 7 5 8 4 4 5 5 8 6 7 8 7 7
11 10 12 11 12 12 12 11 11 12 12 12 11 11 10 9 10 11 11 10 11 11 10 10 12 9 12 10 8 9 7 9 9 10 3 4 7 7 7 7 8 7 8
14 10 11 11 12 12 12 11 13 13 12 10 11 11 10 11 11 11 11 10 10 9 9 10 11 11 12 10 10 9 8 7 6 5 5 4 3 3 4 4 5 7 7
12 9 12 11 12 11 12 12 12 11 11 10 10 11 11 10 9 11 10 10 9 8 8 7 9 11 10 10 8 9 10 9 9 7 5 6 5 7 6 8 5 4 7
14 8 14 12 9 13 12 10 10 10 9 9 10 11 12 11 9 8 9 9 9 7 6 7 6 11 15 12 7 8 9 8 7 7 7 4 6 7 9 6 7 8 8
11 13 12 13 10 12 11 8 9 9 8 9 10 11 11 9 17 17 11 6 6 7 5 5 5 6 8 12 15 13 8 7 6 5 4 5 6 5 7 8 6 7 4
15 13 11 9 15 8 7 9 8 7 7 9 9 10 11 10 17 19 17 6 6 7 7 5 6 4 5 5 9 12 11 11 5 5 5 5 6 6 7 7 7 6 3
14 14 12 12 9 7 8 7 8 8 10 10 11 11 9 8 14 17 16 9 8 9 10 11 11 11 6 8 7 5 8 6 7 7 8 7 6 7 6 6 8 8 4
15 13 14 11 9 9 7 8 8 9 9 9 9 8 8 8 12 17 14 8 9 10 9 10 9 7 13 16 8 7 6 4 4 13 13 13 12 11 7 5 4 4 3
15 15 13 11 10 8 7 10 10 8 9 7 7 6 9 7 12 15 15 6 9 9 10 10 11 11 17 17 10 7 9 6 6 7 8 9 8 7 8 4 4 2 2
15 15 13 11 10 8 8 8 8 6 7 7 6 4 5 6 6 15 18 9 8 9 8 7 7 14 17 18 14 7 7 7 8 6 6 5 5 4 4 4 4 3 2
12 16 14 12 8 7 8 6 7 6 5 5 6 6 5 6 12 18 20 17 16 8 9 7 8 16 18 17 12 12 13 7 5 5 5 5 4 4 3 4 4 3 2
10 17 11 9 8 6 5 7 7 6 6 6 7 9 9 9 8 17 19 20 16 10 8 14 22 16 16 11 13 14 10 5 5 5 5 5 3 4 5 4 3 3 2
12 11 8 8 8 8 8 8 7 7 8 8 8 8 7 8 9 9 9 9 14 12 13 10 12 12 9 10 8 8 5 5 5 5 5 5 4 2 3 2 1 1 2
12 11 9 8 8 8 9 7 7 10 11 8 8 7 8 9 10 17 17 12 11 12 11 8 8 9 9 9 9 9 7 6 5 5 5 5 4 3 3 2 2 2 2
11 8 8 7 6 6 6 7 18 17 20 19 18 12 7 17 22 24 25 25 24 22 8 9 10 11 12 11 12 10 10 7 5 5 5 4 4 3 3 2 3 3 3
11 11 8 8 7 7 7 7 7 7 14 17 19 20 23 21 22 23 24 23 21 16 9 9 10 10 11 11 11 11 11 7 7 5 5 4 4 4 4 3 3 3 3
13 13 7 7 7 6 5 5 5 6 7 7 11 18 22 23 23 23 24 17 12 13 9 10 10 11 11 12 12 13 10 9 6 5 5 4 5 4 4 3 3 3 3
10 7 8 7 7 6 6 6 6 6 7 7 9 12 18 23 21 20 21 9 10 10 11 11 11 12 11 12 12 13 15 8 5 5 4 4 4 3 4 4 4 5 4
10 12 8 6 6 7 7 7 7 7 7 7 8 9 11 12 12 12 11 10 10 10 10 11 11 11 12 11 12 12 12 12 10 7 5 5 4 4 4 4 3 2 2
7 6 8 8 8 7 7 7 7 7 7 7 7 9 14 9 9 9 10 10 10 11 11 11 11 11 11 12 12 11 12 11 10 10 9 8 6 4 3 3 2 3 3
6 7 8 8 7 7 8 8 7 7 7 7 7 8 12 8 8 9 10 10 10 11 10 11 11 11 11 12 12 12 12 11 11 10 10 10 8 5 3 1 2 2 3
8 9 8 7 8 9 8 7 6 7 7 7 8 8 9 9 9 10 11 11 11 11 11 11 11 11 11 11 11 11 12 11 11 11 11 10 9 6 3 1 1 2 2
8 8 8 8 8 7 6 5 6 7 7 7 8 8 9 9 9 11 11 11 11 12 11 11 11 15 15 14 11 11 11 11 11 11 13 10 9 7 4 1 1 2 2
8 8 9 7 7 4 3 5 5 6 7 7 8 8 9 9 9 10 10 10 11 12 13 13 11 16 18 21 17 21 20 21 16 14 9 10 10 8 3 1 1 2 2
9 9 7 6 5 4 5 3 5 6 7 7 7 7 8 9 9 10 10 11 11 12 15 12 15 21 22 16 20 24 23 22 18 19 12 8 7 5 2 1 3 2 3
Wind_Direction
76 97 93 90 91 87 84 79 81 76 72 67 57 50 43 36 27 32 28 26 25 18 15 8 2 354 351 350 342 341 299 262 266 265 220 224 223 232 234 217 234 222 234
53 71 82 87 83 84 82 78 81 78 65 61 55 53 44 39 38 38 32 28 27 24 22 17 13 6 6 356 351 352 338 336 335 309 272 247 231 225 237 224 226 225 229
80 54 60 68 70 76 80 77 69 72 68 68 64 56 47 41 41 40 40 36 35 23 29 27 15 10 14 6 7 355 343 338 350 330 324 341 304 327 280 261 240 240 234
75 108 87 71 76 63 64 65 70 78 81 75 68 64 53 46 39 37 41 40 35 27 20 17 19 14 4 354 354 352 354 353 355 357 354 348 340 341 319 322 318 276 258
110 120 83 76 65 81 66 64 74 79 83 83 76 62 52 43 30 17 33 35 34 18 359 10 10 14 11 2 352 346 1 360 1 0 0 349 354 354 349 336 315 311 303
87 63 57 88 85 61 72 74 72 75 79 81 74 69 57 43 21 9 359 1 355 10 350 343 341 1 1 357 1 356 9 1 356 346 351 353 343 342 337 337 331 340 326
79 71 76 55 65 70 84 72 75 68 62 67 66 79 65 42 23 11 357 351 351 352 340 343 336 337 342 341 347 354 360 355 352 319 330 334 316 329 321 326 336 327 309
95 94 77 79 68 48 44 55 53 54 55 50 55 50 43 38 21 15 7 4 359 351 351 355 345 339 341 338 318 336 346 340 342 331 319 312 314 316 306 308 303 295 290
101 88 84 78 71 56 58 56 53 53 50 52 44 42 30 21 33 19 10 4 359 354 346 339 329 320 329 337 323 320 314 301 316 322 308 300 308 314 320 318 323 323 304
88 89 80 77 76 72 60 63 48 45 51 47 36 22 22 9 28 15 15 354 352 345 345 338 327 323 327 325 316 307 307 304 312 315 311 315 315 308 316 310 301 271 263
94 89 84 82 78 75 61 61 63 55 51 40 28 13 19 13 357 5 8 0 348 340 329 324 317 314 320 317 312 294 281 300 301 298 296 291 287 290 311 317 317 312 269
96 92 80 69 71 58 57 52 54 39 31 17 11 355 356 4 4 7 358 346 329 322 317 309 306 308 313 311 311 293 294 289 273 279 283 284 290 298 304 299 307 315 321
68 82 88 86 67 46 46 43 39 25 31 27 33 27 17 8 358 353 355 349 338 325 313 310 302 307 312 307 297 294 294 275 272 276 280 282 268 276 288 288 278 297 339
94 82 64 65 69 57 54 58 54 50 49 44 28 24 6 354 352 352 345 339 338 337 335 314 302 293 293 296 297 292 284 271 271 275 274 271 274 258 274 265 268 294 292
82 78 73 67 59 61 63 59 59 63 55 48 34 20 1 356 353 355 354 349 345 340 331 336 336 333 326 317 316 303 284 282 278 270 267 269 270 260 258 237 234 225 241
89 81 72 70 63 56 52 51 46 53 48 47 37 26 3 2 1 360 356 352 353 354 351 350 344 337 328 319 312 308 296 278 270 266 270 264 269 269 265 233 222 226 247
85 80 75 70 63 53 48 43 32 9 33 30 27 20 12 7 6 4 0 355 355 2 358 342 332 328 321 315 310 300 299 294 281 269 267 265 261 261 263 245 232 228 242
76 72 75 68 62 52 47 44 38 27 11 6 15 13 9 7 7 5 5 358 355 359 352 336 333 332 328 329 323 316 289 286 273 271 267 264 256 249 259 245 237 230 224
84 75 67 68 63 57 53 46 41 33 22 7 356 6 2 356 2 5 8 5 349 342 340 335 339 332 330 332 327 326 327 292 277 281 276 279 268 252 257 250 235 227 205
72 68 68 72 63 55 49 45 37 30 21 14 10 8 350 350 359 357 356 354 345 338 337 333 333 333 330 331 331 331 332 339 349 343 328 308 286 266 260 250 233 196 166
79 82 78 68 59 54 49 41 36 29 18 9 3 8 358 358 350 347 346 347 340 332 333 331 331 330 334 330 331 332 333 331 338 339 334 329 314 295 270 255 226 165 153
85 77 70 67 61 51 48 40 30 24 17 8 358 357 357 2 355 348 344 342 333 329 329 327 329 329 336 331 330 329 331 328 331 331 326 321 319 309 294 267 173 142 154
77 73 69 62 57 52 41 31 31 24 16 8 359 357 357 355 349 347 340 335 331 329 329 328 327 329 335 331 326 328 326 326 322 316 312 313 311 321 317 333 110 126 137
74 72 72 64 51 49 39 26 21 19 16 11 2 358 354 348 343 340 336 332 330 328 328 328 325 331 331 331 327 328 322 322 316 308 311 301 301 316 324 349 87 132 135
72 68 62 56 52 35 17 29 20 15 13 11 1 355 348 343 341 339 333 332 330 328 329 328 327 330 334 330 329 330 328 327 324 317 312 302 298 313 322 339 79 93 110
67 64 60 53 47 44 37 4 15 19 13 2 354 346 343 340 338 334 334 335 332 327 329 328 328 331 335 335 334 333 332 332 329 325 320 301 307 320 325 39 97 98 109